Weather in Semenovo

Russia / Nizhny Novgorod Oblast'     57°20′10″N   45°42′51″E
temp.,
°C
wind,
m/s
gust,
m/s
humid.,
%
clouds,
%
prec.,
mm/h
press.,
hPa
HPBL,
m
15 may, sat
sat1500:00+16sse2288100 0.0 101733
03:00+15sse2495100 0.9 101780
06:00+17ese2891100 1.3 1015206
09:00+22sse4769100 1.3 1014509
12:00+27s594520 0.0 10131516
15:00+27ssw58506 0.0 10121646
18:00+23sw4969100 0.0 1012909
21:00+18s310885 0.1 1012239
16 may, sun
sun1600:00+16s229084 0.2 101323
03:00+15s22966 1.1 101425
06:00+17s259273 0.0 1014187
09:00+22sw486236 0.0 10141003
12:00+24sw5941100 0.0 10141853
15:00+24sw59400 0.0 10142027
18:00+22wsw375413 0.0 1013653
21:00+16ssw27731 0.0 1014130
17 may, mon
mon1700:00+14sw24840 0.0 101573
03:00+13sw22881 0.0 101634
06:00+16wsw23765 0.0 1017166
09:00+21wsw235494 0.0 1018848
12:00+24wsw34425 0.0 10181533
15:00+26sw24385 0.0 10171639
18:00+25ssw005523 0.0 101611
21:00+18ese226993 0.0 101712
18 may, tue
tue1800:00+16se128219 0.0 101711
03:00+15se22895 0.0 101725
06:00+18se24785 0.0 1017141
09:00+25se23459 0.0 1016489
12:00+29se462980 0.0 10152463
15:00+29sse56275 0.0 10153253
18:00+25se38431 0.0 1014298
21:00+18se311600 0.0 1015172
19 may, wed
wed1900:00+17se311695 0.0 1014191
03:00+15se31073100 0.0 1014180
06:00+18se41162100 0.0 1013270
09:00+25se594082 0.0 1012544
12:00+30sse6102727 0.0 10113048
15:00+30sse6113241 0.0 10103902
18:00+26sse511455 0.0 10091253
21:00+16sw4118298 2.3 1010303